Temp
63 63 63 64 64 64 64 64 64 64 64 64 64 64 64 64 64 58 52 60 65 70 67 58 59 59 58 54 53 54 49 45 46 44 47 47 48 51 52 50 50 52 52 50 49
63 63 63 63 63 63 63 63 64 64 64 64 64 64 64 63 57 54 65 71 70 70 58 56 57 58 52 52 50 50 46 47 46 47 45 47 49 49 49 48 49 49 49 48 48
63 63 63 63 63 63 63 63 63 63 64 64 64 64 63 59 57 55 69 69 69 63 56 56 56 57 51 49 47 45 45 45 45 47 48 47 47 49 46 45 49 48 49 47 46
62 62 62 62 62 62 62 63 63 63 63 63 64 64 63 56 50 56 68 67 67 59 58 56 56 53 48 47 47 45 44 45 45 45 46 45 47 46 45 51 50 51 50 46 46
62 62 62 61 61 61 62 62 63 63 63 63 64 63 57 54 51 60 64 60 57 57 52 53 53 50 47 46 46 44 43 44 44 44 44 45 44 46 44 49 49 47 47 47 47
62 61 61 61 61 61 61 62 63 63 63 63 64 63 57 50 57 57 54 56 54 55 52 52 50 49 47 44 45 43 43 43 44 44 44 43 44 43 48 47 46 45 46 46 47
61 61 61 60 61 61 62 62 63 62 62 63 64 62 56 51 56 57 54 52 52 53 53 51 51 52 48 44 45 44 43 42 42 42 43 40 40 39 46 44 45 45 45 45 46
61 60 60 60 60 61 61 61 61 61 62 64 65 58 50 57 55 55 55 54 55 56 54 52 52 48 47 45 45 43 43 41 41 41 43 44 44 46 45 44 44 44 44 45 47
60 60 60 60 60 60 60 61 61 62 64 64 56 55 49 61 55 53 53 52 51 53 54 57 50 45 44 42 41 40 38 39 42 39 39 43 42 47 44 43 44 44 44 44 45
59 59 59 59 59 59 60 61 62 62 61 62 59 54 55 52 52 54 52 52 51 51 52 50 44 41 37 38 34 37 37 37 37 38 37 37 39 44 45 43 44 44 43 43 44
59 58 59 59 59 59 57 56 57 55 51 47 45 47 51 53 51 54 50 50 52 48 43 43 38 34 34 35 36 35 33 33 36 36 36 36 34 40 42 39 39 39 40 41 44
58 58 58 59 59 59 52 49 43 48 47 47 48 49 50 48 50 53 52 50 48 41 41 42 35 36 37 37 36 36 33 32 36 36 34 32 34 38 41 42 41 40 39 41 43
58 58 58 58 59 52 47 44 47 45 49 47 48 48 48 51 44 47 48 44 42 39 37 38 36 38 37 36 35 35 31 30 30 33 32 29 33 39 41 42 40 40 41 41 43
57 58 58 59 56 46 46 46 47 46 43 47 48 49 50 47 45 48 46 44 42 37 35 36 37 37 36 36 34 31 34 32 30 27 27 30 30 37 39 39 37 38 40 42 42
57 58 58 58 50 47 46 46 45 50 31 47 48 53 49 47 43 48 45 46 38 37 37 35 34 35 36 36 35 35 33 31 29 21 20 27 23 35 36 37 38 38 39 41 42
57 57 58 51 47 44 45 44 49 41 29 42 44 43 44 44 44 44 44 45 41 38 36 33 34 34 34 35 35 34 31 30 25 23 20 18 24 33 36 38 37 39 39 40 41
56 57 53 50 48 45 45 48 41 32 43 41 39 40 38 38 41 39 37 29 31 33 33 34 33 32 34 32 34 30 28 24 25 23 26 21 22 32 37 38 39 37 38 40 41
56 54 51 49 44 45 47 47 35 39 36 37 37 38 37 37 36 37 36 31 28 29 25 27 31 32 32 28 27 27 24 23 18 21 23 24 24 34 36 37 39 39 39 40 41
55 46 46 47 46 45 48 33 34 36 37 37 38 35 34 36 33 34 28 25 26 24 30 25 32 30 31 30 29 28 24 27 16 10 16 25 30 34 35 35 36 37 38 39 41
46 46 47 46 44 46 42 38 35 36 37 36 34 33 31 33 34 33 29 28 29 26 24 28 25 31 29 30 29 26 27 23 18 16 17 24 20 31 30 33 35 35 36 39 40
45 47 49 45 45 42 32 30 35 36 36 36 34 32 29 29 29 28 29 32 31 29 27 21 25 29 28 26 23 23 18 18 20 19 18 16 24 29 29 31 33 36 36 37 38
42 45 48 45 43 27 32 35 41 36 35 35 33 31 31 32 30 31 33 34 31 31 26 24 21 20 31 16 14 18 22 21 24 24 22 19 28 28 24 20 21 25 31 32 32
39 39 47 47 31 31 32 35 36 36 36 35 35 35 31 32 30 32 33 33 33 33 25 28 28 27 27 22 20 18 20 22 25 28 25 25 29 28 20 25 25 27 32 33 34
39 37 42 36 31 31 32 34 35 36 36 36 35 34 31 30 32 29 32 33 33 34 40 37 29 33 30 35 32 27 25 23 27 25 30 29 33 37 38 34 28 29 27 28 29
36 31 33 29 34 32 32 31 34 35 34 34 33 35 31 27 30 30 31 31 34 38 35 33 26 27 33 35 33 33 33 31 23 29 28 33 30 37 38 33 32 25 20 26 29
38 35 36 36 33 31 33 32 34 36 35 34 33 35 33 29 36 34 36 37 38 33 32 30 26 27 23 28 27 26 31 31 30 30 28 29 26 36 32 13 22 19 18 21 24
37 38 38 35 31 28 32 34 35 35 39 38 37 34 31 36 39 40 40 43 42 33 29 25 25 23 27 27 26 24 23 26 13 8 22 18 28 9 20 21 21 23 20 24 26
MSLP
1019.65 1019.49 1019.27 1018.94 1018.69 1018.45 1018.23 1017.87 1017.69 1017.53 1017.32 1017.05 1016.80 1016.54 1016.33 1016.07 1015.86 1015.91 1016.68 1016.86 1016.05 1015.40 1015.21 1015.12 1014.97 1015.02 1015.21 1016.18 1016.64 1016.71 1017.65 1018.83 1019.05 1019.58 1019.74 1020.38 1020.63 1020.88 1021.03 1021.27 1021.63 1021.73 1021.98 1022.48 1022.93
1019.55 1019.36 1019.13 1018.88 1018.65 1018.46 1018.16 1017.87 1017.72 1017.55 1017.31 1016.96 1016.69 1016.41 1016.20 1016.08 1016.08 1016.50 1016.81 1016.19 1015.72 1015.25 1015.29 1015.18 1015.24 1015.24 1016.20 1016.89 1017.37 1017.58 1018.53 1019.05 1019.45 1019.62 1020.00 1020.38 1020.66 1020.86 1021.22 1021.44 1021.62 1021.85 1022.22 1022.69 1023.18
1019.45 1019.21 1019.00 1018.77 1018.58 1018.39 1018.10 1017.87 1017.69 1017.52 1017.21 1016.86 1016.55 1016.21 1016.05 1016.09 1016.21 1016.81 1016.41 1015.93 1015.48 1015.28 1015.41 1015.37 1015.35 1015.53 1016.74 1017.48 1018.38 1018.75 1019.36 1019.79 1020.10 1020.21 1020.30 1020.56 1020.83 1020.93 1021.10 1021.29 1020.81 1021.11 1021.79 1022.66 1023.18
1019.30 1019.01 1018.81 1018.67 1018.48 1018.26 1018.02 1017.81 1017.61 1017.38 1017.05 1016.73 1016.38 1016.05 1015.89 1016.04 1017.15 1016.88 1016.40 1016.02 1015.64 1015.42 1015.41 1015.51 1015.57 1016.19 1017.45 1018.33 1018.87 1019.30 1020.20 1020.26 1020.60 1020.69 1020.71 1020.94 1021.04 1021.06 1021.11 1020.53 1020.60 1020.83 1021.29 1022.30 1022.86
1019.15 1018.83 1018.62 1018.50 1018.32 1018.16 1017.96 1017.76 1017.52 1017.20 1016.89 1016.59 1016.25 1015.95 1016.00 1016.53 1017.53 1016.96 1016.70 1016.28 1015.80 1015.59 1016.12 1016.03 1016.22 1016.85 1018.03 1018.79 1019.25 1019.81 1020.51 1020.73 1020.95 1021.05 1021.07 1021.09 1021.09 1021.12 1020.53 1020.48 1020.81 1021.04 1021.53 1022.05 1022.61
1019.06 1018.80 1018.63 1018.47 1018.25 1018.07 1017.84 1017.56 1017.29 1017.04 1016.78 1016.50 1016.10 1015.83 1015.97 1017.21 1017.37 1017.33 1017.08 1016.44 1016.46 1016.24 1016.61 1016.55 1017.03 1017.23 1018.37 1019.34 1019.70 1020.46 1020.70 1021.00 1021.15 1021.32 1021.26 1021.33 1021.26 1021.23 1020.06 1020.22 1020.89 1021.28 1021.66 1022.06 1022.47
1019.16 1018.90 1018.70 1018.44 1018.18 1017.94 1017.61 1017.29 1017.07 1016.87 1016.65 1016.38 1016.00 1015.80 1016.63 1017.71 1017.41 1017.41 1017.23 1017.06 1017.01 1016.81 1016.95 1017.19 1017.15 1017.38 1018.64 1019.75 1020.28 1020.41 1020.75 1020.97 1021.17 1021.37 1021.36 1021.52 1021.35 1020.69 1020.12 1020.52 1020.97 1021.41 1021.82 1022.12 1022.41
1019.18 1018.91 1018.63 1018.32 1017.98 1017.69 1017.37 1017.05 1016.82 1016.60 1016.37 1016.22 1015.98 1015.96 1017.04 1017.25 1017.36 1017.42 1017.35 1017.08 1017.07 1016.93 1017.08 1017.33 1017.39 1018.14 1019.39 1020.29 1020.43 1020.65 1020.77 1021.22 1021.28 1021.37 1021.34 1021.45 1020.42 1019.78 1020.17 1020.63 1021.15 1021.51 1021.87 1022.08 1022.17
1019.14 1018.81 1018.54 1018.15 1017.72 1017.37 1017.05 1016.73 1016.53 1016.33 1016.19 1016.07 1016.12 1016.16 1017.36 1017.23 1017.50 1017.91 1017.90 1017.83 1017.53 1017.26 1017.38 1017.43 1017.90 1019.75 1020.45 1020.82 1021.18 1021.45 1021.57 1021.76 1021.62 1022.02 1022.00 1021.61 1020.57 1019.86 1020.22 1020.72 1021.02 1021.33 1021.59 1021.89 1021.99
1019.04 1018.69 1018.37 1017.92 1017.42 1017.02 1016.73 1016.52 1016.45 1016.27 1016.33 1016.24 1016.61 1017.15 1017.59 1018.44 1018.42 1018.23 1018.09 1017.99 1017.81 1017.57 1017.71 1018.23 1019.36 1020.77 1022.12 1022.03 1022.83 1022.80 1022.64 1022.43 1022.72 1022.70 1022.46 1021.90 1020.61 1020.14 1020.28 1020.57 1020.62 1020.94 1021.17 1021.56 1021.84
1019.01 1018.65 1018.21 1017.70 1017.26 1016.89 1016.59 1016.70 1017.46 1017.64 1018.08 1018.87 1019.03 1019.02 1019.03 1018.93 1018.73 1018.50 1018.56 1018.32 1018.12 1018.53 1019.75 1020.16 1021.33 1023.07 1023.89 1023.87 1023.64 1023.59 1023.59 1023.66 1023.12 1023.42 1023.09 1021.98 1021.03 1019.81 1019.64 1019.87 1020.12 1020.42 1020.81 1021.15 1021.54
1018.95 1018.48 1017.93 1017.52 1017.11 1016.89 1017.10 1018.53 1019.81 1019.87 1019.93 1019.65 1019.43 1019.40 1019.46 1019.67 1019.22 1018.98 1018.73 1019.01 1019.23 1020.43 1020.77 1021.23 1022.91 1023.87 1024.06 1024.05 1024.01 1023.98 1024.12 1024.08 1023.49 1023.67 1023.91 1022.42 1020.41 1019.27 1019.10 1019.14 1019.44 1019.84 1020.59 1020.97 1021.46
1018.85 1018.30 1017.82 1017.40 1017.08 1017.33 1018.79 1019.95 1020.13 1019.95 1019.76 1019.88 1019.59 1019.54 1019.81 1019.82 1020.51 1020.40 1020.07 1020.36 1020.90 1021.48 1022.20 1022.52 1023.89 1024.06 1024.24 1024.34 1024.38 1024.27 1024.63 1024.89 1025.23 1024.46 1024.11 1023.26 1020.53 1018.96 1018.73 1018.93 1019.33 1019.65 1020.18 1020.83 1021.06
1018.75 1018.28 1017.84 1017.21 1017.62 1018.81 1019.72 1020.15 1020.10 1020.00 1020.17 1020.23 1019.75 1019.76 1019.88 1019.98 1020.84 1020.99 1021.01 1021.13 1021.62 1022.40 1023.03 1023.72 1024.09 1024.30 1024.43 1024.71 1025.01 1024.93 1025.08 1025.51 1025.77 1025.87 1025.49 1024.09 1021.92 1019.22 1018.75 1019.03 1019.54 1019.81 1020.23 1020.62 1020.97
1018.81 1018.40 1018.07 1017.16 1018.43 1019.41 1020.33 1020.17 1020.01 1019.85 1020.97 1020.58 1020.01 1019.72 1020.00 1020.65 1021.61 1021.22 1021.50 1021.02 1022.28 1023.09 1023.55 1024.46 1024.66 1024.75 1024.97 1025.38 1025.55 1025.47 1025.56 1025.86 1026.09 1026.45 1026.48 1024.85 1023.80 1019.31 1018.97 1019.19 1019.63 1020.00 1020.35 1020.69 1020.96
1019.05 1018.62 1018.26 1018.51 1019.19 1020.27 1020.20 1020.01 1019.89 1020.45 1020.63 1020.46 1020.42 1020.62 1020.67 1021.26 1021.87 1021.92 1021.82 1021.93 1022.88 1023.36 1023.97 1024.93 1025.35 1025.57 1025.73 1025.75 1025.90 1025.97 1026.01 1026.19 1026.49 1026.45 1026.26 1024.97 1024.13 1019.96 1019.13 1018.95 1019.65 1020.20 1020.58 1020.81 1021.10
1019.40 1019.10 1018.62 1019.44 1020.31 1020.24 1020.21 1020.11 1020.67 1021.26 1020.99 1021.49 1021.44 1021.56 1021.97 1022.48 1022.59 1023.12 1023.44 1024.08 1024.91 1024.93 1025.50 1025.44 1025.78 1026.14 1026.46 1026.54 1026.44 1026.54 1026.75 1026.95 1026.84 1026.45 1025.76 1024.78 1024.14 1019.82 1019.35 1019.30 1019.56 1020.20 1020.74 1021.00 1021.27
1019.58 1019.43 1019.89 1020.14 1020.28 1020.20 1020.20 1020.42 1021.18 1021.46 1021.63 1021.94 1021.98 1021.95 1022.41 1023.02 1023.44 1023.85 1024.52 1025.69 1026.12 1026.45 1027.11 1027.16 1026.35 1026.71 1027.20 1027.69 1027.92 1027.92 1028.00 1028.29 1028.41 1028.09 1026.46 1024.85 1023.06 1019.96 1019.78 1019.75 1019.92 1020.48 1020.83 1021.08 1021.20
1019.53 1019.97 1020.19 1020.31 1020.22 1020.25 1020.43 1021.66 1022.03 1022.35 1022.48 1022.40 1022.22 1022.39 1022.81 1023.19 1023.74 1024.16 1025.12 1026.31 1026.87 1027.27 1027.69 1027.78 1027.22 1027.27 1027.70 1028.30 1028.96 1028.94 1028.81 1028.68 1028.79 1029.44 1027.90 1024.25 1021.99 1020.36 1020.22 1020.52 1020.80 1021.00 1021.20 1021.22 1021.23
1019.96 1020.30 1020.62 1020.32 1020.21 1020.41 1021.37 1022.67 1023.11 1023.18 1023.11 1023.08 1022.94 1023.19 1023.49 1023.69 1024.08 1024.61 1025.32 1026.32 1027.27 1027.81 1028.03 1028.27 1028.07 1027.56 1028.36 1028.86 1029.44 1029.56 1029.79 1029.49 1029.31 1028.89 1027.22 1024.28 1023.24 1020.97 1020.98 1021.38 1021.69 1021.80 1021.62 1021.51 1021.41
1020.18 1020.68 1020.48 1020.39 1020.41 1020.99 1023.22 1023.84 1023.77 1023.76 1023.70 1023.66 1023.53 1023.78 1024.10 1024.33 1024.57 1025.03 1025.61 1026.30 1026.84 1027.96 1028.24 1028.50 1028.87 1028.35 1028.66 1029.23 1029.53 1030.22 1030.24 1030.18 1029.76 1028.49 1027.32 1025.56 1022.34 1020.66 1021.14 1021.46 1021.62 1021.58 1021.80 1021.83 1021.81
1020.87 1021.31 1020.63 1020.53 1021.68 1023.74 1024.42 1024.27 1024.11 1024.13 1024.09 1024.04 1023.98 1024.11 1024.27 1024.54 1024.90 1025.11 1025.45 1025.90 1026.74 1027.36 1028.31 1028.81 1028.97 1028.86 1028.38 1029.67 1030.23 1029.77 1029.40 1028.91 1028.87 1027.94 1026.90 1025.67 1021.29 1020.88 1021.59 1022.09 1022.30 1022.49 1022.55 1022.48 1022.35
1022.35 1022.16 1020.84 1020.77 1023.31 1024.99 1024.88 1024.65 1024.48 1024.44 1024.33 1024.40 1024.41 1024.46 1024.76 1024.88 1025.20 1024.82 1025.18 1026.01 1026.56 1027.13 1027.45 1028.05 1028.24 1028.01 1027.49 1029.19 1029.47 1029.26 1028.78 1028.00 1027.15 1026.11 1024.66 1024.39 1021.04 1020.88 1021.73 1022.07 1022.39 1022.89 1022.44 1022.09 1021.87
1023.18 1023.63 1023.00 1023.82 1025.52 1025.33 1025.26 1024.94 1024.61 1024.45 1024.41 1024.44 1024.60 1024.74 1025.05 1025.10 1025.01 1024.98 1025.15 1025.82 1026.39 1026.62 1026.75 1026.92 1027.11 1026.72 1026.18 1025.65 1026.04 1027.20 1027.33 1027.00 1026.65 1025.39 1022.79 1021.66 1019.89 1021.01 1021.26 1022.30 1022.38 1022.40 1022.46 1022.32 1022.24
1024.40 1026.14 1026.54 1026.28 1026.12 1025.87 1025.46 1025.17 1024.65 1024.45 1024.50 1024.50 1024.67 1024.76 1025.03 1025.37 1024.96 1025.00 1025.13 1025.64 1026.29 1026.46 1026.91 1027.08 1026.83 1025.78 1024.60 1024.19 1024.56 1024.89 1025.34 1025.57 1025.32 1023.37 1023.36 1019.60 1021.32 1020.34 1021.06 1022.06 1022.09 1022.37 1022.65 1022.68 1022.46
1025.25 1026.15 1026.83 1026.97 1026.64 1026.06 1025.73 1025.25 1024.86 1024.43 1024.55 1024.59 1024.89 1024.51 1024.82 1024.96 1024.33 1024.24 1024.37 1024.93 1025.20 1026.45 1027.00 1027.25 1026.33 1025.54 1024.37 1023.59 1023.52 1023.89 1024.17 1023.80 1023.66 1023.70 1023.10 1022.52 1022.33 1021.26 1021.43 1021.89 1022.28 1022.79 1022.73 1022.77 1022.52
1025.72 1025.95 1026.17 1027.00 1026.73 1026.49 1025.79 1025.05 1024.73 1024.58 1023.96 1023.98 1024.42 1024.77 1024.85 1024.12 1023.63 1023.43 1023.53 1023.69 1023.84 1024.95 1026.45 1027.13 1026.66 1025.79 1023.51 1023.24 1023.34 1022.91 1021.82 1022.64 1023.49 1023.65 1023.43 1023.36 1021.92 1022.69 1022.71 1022.50 1022.39 1022.65 1022.51 1022.55 1022.55
Wind_Speed
8 9 9 10 11 11 12 12 12 12 12 11 10 9 8 8 4 5 7 6 11 18 12 5 1 3 4 5 5 2 5 2 5 7 3 4 4 1 1 3 2 3 2 1 5
9 9 10 10 11 12 12 12 12 13 12 11 10 8 7 5 3 8 2 17 15 13 4 4 3 3 5 4 5 5 4 4 1 1 4 5 3 5 3 3 4 2 1 3 8
10 10 10 11 11 12 12 12 12 13 13 12 10 9 6 1 3 4 16 20 15 7 2 1 2 3 5 4 5 3 3 4 0 1 3 6 2 3 5 5 7 8 7 7 6
11 11 11 11 11 12 12 12 13 12 12 11 10 9 2 1 2 3 21 18 11 5 3 1 3 4 5 4 3 6 2 1 2 1 2 5 3 3 6 3 0 7 6 8 10
12 12 12 12 12 12 12 12 12 11 10 10 10 8 1 8 3 7 17 12 3 4 6 3 4 3 5 4 2 4 2 3 2 3 1 1 4 5 8 6 1 5 8 10 9
14 13 12 12 12 12 12 11 11 10 10 10 9 5 4 7 3 7 9 5 6 5 6 7 3 3 7 4 4 2 3 3 2 2 1 1 1 3 2 3 5 7 8 8 8
13 13 12 12 12 11 12 11 10 10 10 9 8 2 9 2 2 6 8 3 4 3 4 3 1 5 3 4 4 5 3 0 4 5 1 2 4 8 2 4 7 7 6 6 8
12 12 12 11 11 11 12 12 10 9 8 6 4 3 3 0 1 5 7 1 6 4 4 1 6 9 6 2 4 4 4 4 1 6 1 1 7 2 5 6 7 7 6 6 6
13 12 12 12 12 12 11 9 8 6 4 3 1 2 2 1 5 5 5 4 6 1 5 3 6 5 6 3 4 7 1 3 6 3 4 1 7 1 4 5 6 8 9 8 6
14 13 13 13 12 11 10 2 4 2 5 1 2 4 6 5 6 5 4 4 4 2 2 9 7 6 6 6 1 4 5 4 5 5 3 5 16 9 7 8 13 10 9 10 8
14 13 13 13 11 9 3 3 5 4 12 4 1 1 4 9 2 5 5 5 3 10 6 6 10 4 2 2 0 1 2 5 5 3 5 4 11 17 9 6 8 9 9 9 10
15 14 13 12 8 5 5 6 2 1 6 1 1 2 1 2 6 8 8 6 8 5 6 6 4 1 2 1 2 3 2 5 6 1 2 5 19 12 4 4 4 8 8 8 5
15 14 14 11 1 7 6 4 1 1 5 2 1 2 4 4 3 9 7 3 6 6 7 6 1 1 1 2 5 2 3 3 5 9 2 8 7 0 2 2 3 2 5 4 8
14 14 13 10 7 0 4 2 2 1 6 5 4 4 3 2 4 3 3 2 7 3 3 5 1 1 1 2 1 4 1 1 5 5 4 5 6 3 1 2 4 3 6 7 7
14 15 8 12 6 5 1 3 3 2 5 4 5 2 2 5 4 5 2 5 3 2 2 1 3 3 2 1 1 5 0 2 2 1 4 3 2 6 1 2 2 3 4 4 5
13 14 5 6 4 1 3 3 2 10 6 3 3 6 3 6 7 7 6 9 2 3 5 3 0 2 1 2 2 4 2 2 2 2 2 4 2 6 4 4 4 2 4 6 6
11 9 7 1 1 3 2 3 8 6 2 4 4 5 1 6 6 9 7 9 3 5 7 2 1 0 2 3 1 4 5 5 7 5 4 4 2 9 2 2 5 7 6 5 5
7 5 5 3 2 1 2 7 2 2 0 1 1 2 3 5 3 7 2 3 2 3 4 3 7 1 4 3 3 3 4 5 5 3 6 1 7 4 3 5 4 5 6 5 5
3 3 3 4 3 1 6 6 6 3 1 3 1 3 2 0 1 3 2 3 3 2 5 3 6 2 4 2 3 1 2 2 6 2 2 4 8 2 2 4 3 6 5 6 4
3 3 2 6 3 4 7 4 2 1 1 1 1 1 2 4 3 5 1 4 2 3 2 3 5 2 2 2 3 3 1 3 4 2 5 5 6 8 3 7 5 7 7 6 2
4 4 3 4 3 7 4 4 2 1 1 1 3 2 2 1 1 2 3 3 3 4 3 4 4 2 1 5 7 2 2 5 2 3 3 5 8 6 5 10 15 13 7 7 6
3 3 3 1 6 2 3 1 0 2 1 1 2 4 4 5 4 4 5 5 6 7 4 2 5 3 9 1 0 1 5 5 4 3 3 3 10 1 4 3 1 4 6 5 4
3 2 3 3 4 2 2 0 1 2 2 1 3 2 3 4 2 4 3 2 6 5 7 6 2 5 4 3 3 2 4 1 1 3 10 8 9 2 4 3 6 8 11 13 12
4 4 6 7 1 6 3 1 1 1 2 1 0 1 1 3 4 3 3 3 6 5 7 7 2 9 12 15 5 4 7 7 5 6 13 15 24 16 16 11 6 8 9 8 7
5 0 2 4 4 2 1 1 2 2 1 1 1 5 6 3 2 5 3 1 3 5 3 5 6 7 15 18 12 15 16 12 15 19 15 24 18 23 16 8 10 3 4 7 8
3 3 1 0 2 2 2 1 1 3 3 3 4 1 6 5 8 8 6 5 7 3 6 3 5 2 6 15 13 14 15 21 22 17 18 21 25 20 13 2 5 4 4 6 7
2 2 5 2 2 3 3 2 4 2 4 3 7 1 4 12 8 8 6 7 6 10 10 7 4 3 7 1 4 9 13 14 2 4 7 8 14 1 4 5 5 6 4 7 8
Wind_Direction
349 343 340 341 338 337 336 339 339 337 335 335 334 337 340 340 3 39 45 303 322 321 333 286 69 35 44 68 42 134 69 180 197 162 171 164 160 205 113 125 211 202 192 34 106
347 342 340 337 335 332 333 336 334 329 327 331 331 331 335 340 100 60 277 339 332 335 359 35 44 28 51 38 19 69 110 188 147 149 176 177 188 169 151 174 240 226 184 105 139
348 344 340 338 334 329 329 330 328 322 320 324 326 327 323 313 99 337 341 344 342 357 156 79 94 69 67 45 358 13 123 158 41 91 136 153 189 159 162 220 214 200 182 159 164
347 345 341 337 333 328 327 323 319 316 316 320 324 328 324 209 58 303 344 342 354 74 72 42 44 61 70 62 354 84 55 38 166 3 132 165 131 246 196 226 99 213 163 160 172
350 349 345 339 332 324 319 317 315 315 319 320 320 329 242 44 344 332 339 343 18 46 55 45 56 96 97 98 75 77 148 72 108 67 60 100 237 256 247 225 85 127 147 167 180
351 349 342 335 326 318 314 314 315 316 318 319 324 313 76 63 332 344 338 358 25 34 21 34 90 107 96 63 62 92 91 107 62 34 305 278 258 8 255 173 158 159 173 181 191
348 344 337 332 324 316 315 314 311 310 312 315 329 70 63 134 5 346 3 17 355 25 68 26 126 81 139 91 164 143 75 62 23 338 161 99 252 235 262 141 159 178 184 196 214
346 342 337 331 324 315 312 306 302 300 300 301 318 68 100 102 189 19 341 4 6 21 88 64 76 98 56 127 45 52 53 6 66 353 71 67 275 186 158 152 187 198 204 207 219
347 343 337 330 325 316 308 301 298 303 299 314 21 63 15 104 24 318 35 353 303 25 42 78 67 79 35 52 32 14 300 323 316 56 312 61 273 233 160 181 209 212 215 213 223
348 343 337 332 328 324 310 269 318 46 353 46 66 42 19 316 309 342 344 359 26 325 30 37 49 64 31 33 188 318 333 311 255 349 351 272 264 255 250 228 244 230 215 212 212
346 340 338 335 328 338 19 50 23 355 41 71 17 7 330 298 277 12 354 345 29 55 36 11 61 50 325 15 315 276 260 271 270 12 330 263 281 282 272 222 233 225 205 197 204
344 339 340 339 333 8 65 74 66 169 83 17 293 326 289 339 2 348 3 58 49 48 332 27 68 240 243 234 265 222 281 275 275 161 342 332 290 275 233 222 221 207 189 184 166
344 342 339 342 6 42 75 93 326 282 90 7 53 21 319 21 76 319 18 41 61 51 15 99 136 280 229 58 6 242 207 271 253 321 225 306 285 333 171 104 38 121 158 157 189
349 350 344 333 48 307 51 340 339 285 73 320 345 4 357 42 42 313 15 101 35 112 81 90 290 209 207 97 68 308 106 319 291 2 288 359 282 283 31 80 34 61 159 182 188
352 353 9 37 142 61 294 316 300 40 38 305 330 304 359 65 305 360 8 26 83 89 96 315 5 10 41 2 143 263 288 250 136 133 9 345 66 266 331 143 110 87 123 150 175
352 356 12 21 51 14 314 324 44 45 263 7 341 342 16 22 3 311 22 37 135 106 46 95 296 43 279 286 224 325 285 139 72 118 8 243 112 276 192 194 150 120 126 135 133
357 12 51 35 79 324 343 49 41 120 346 337 339 16 82 345 360 27 23 10 64 48 6 4 39 127 7 323 222 24 29 334 349 1 236 162 332 255 325 26 176 158 154 146 133
343 25 31 62 314 355 57 51 104 167 2 280 310 311 56 2 27 3 53 33 106 44 79 71 327 50 7 111 190 37 134 150 259 286 302 107 250 270 264 326 136 138 148 153 152
21 2 41 343 346 49 74 62 215 191 206 341 293 69 354 86 237 28 59 195 219 139 136 71 278 112 46 94 83 231 44 167 102 102 13 265 291 293 4 71 131 170 180 181 161
79 62 335 322 4 62 74 193 188 220 197 217 201 110 297 308 352 31 343 229 205 185 180 198 315 64 130 110 51 126 144 39 13 325 288 280 280 253 233 201 217 227 221 211 203
54 55 268 346 58 48 124 201 178 208 202 142 192 214 212 260 226 268 237 235 192 154 96 123 106 273 138 195 179 58 12 43 118 130 204 299 262 216 222 196 206 214 214 211 222
79 33 308 58 49 39 100 202 144 196 253 216 99 139 200 178 233 241 229 213 148 150 144 216 146 259 243 360 140 130 204 156 145 217 236 223 267 152 238 264 74 246 247 249 235
68 279 323 76 91 18 267 260 231 189 235 215 236 229 209 216 328 211 225 116 155 154 170 184 211 303 289 5 17 206 214 229 333 17 211 250 258 303 309 293 217 225 238 238 244
67 21 341 46 47 112 15 23 307 162 269 221 255 86 146 246 221 279 254 186 193 203 179 161 233 212 256 266 147 185 205 204 196 224 277 236 270 279 277 277 259 242 245 260 258
27 354 183 329 357 60 81 271 302 289 236 200 234 221 178 205 242 230 233 206 193 219 151 176 232 237 250 271 270 261 261 230 210 236 248 276 284 279 285 297 276 248 275 284 293
90 98 21 61 302 330 7 236 234 304 164 230 214 270 187 194 199 261 203 206 225 138 166 177 260 257 241 246 254 263 262 246 249 254 256 271 279 283 291 326 307 275 234 239 242
351 27 106 316 24 70 233 213 218 125 255 222 204 215 212 235 243 255 249 258 238 160 189 180 221 210 272 222 269 261 235 230 205 240 182 201 239 43 314 317 281 285 258 305 308